Date String (YYYY-MM-DD hh:mm:ss) UTC,Instrument flags,absolute air pressure of the measurement (hPa),sample flow rate (lpm),inlet stack bypass flow (lpm),air temperature of the measurement (°C),ambient temperature measured by the external sensor (°C),aerosol sample conditioner tube jacket temperature (°C),OPC LED temperature (°C),internal box temperature (°C),relative humidity of the measurement (%),span deviation,mass concentration of particles derived from Lorenz-Mie calculation of OPC scattering (μg/m³),mass concentration of particles derived from Lorenz-Mie calculation of OPC scattering (μg/m³),mass concentration of particles derived from Lorenz-Mie calculation of OPC scattering (μg/m³)
DateTimeUTC,F1_M11,P_M11,Q1_M11,Q2_M11,T1_M11,T2_M11,T3_M11,T4_M11,T5_M11,U1_M11,ZSPAN_M11,X0_M11,X2_M11,X1_M11
2023-10-01 14:00:00,SystemResetWarning,0827.1,4.99,000.00,028.8,027.5,000.0,037.1,030.5,20.4,0000.0,0007.24,0003.27,0002.60
2023-10-01 14:01:00,SystemResetWarning,0827.1,5.00,000.00,028.8,027.5,000.0,037.2,030.5,20.3,0000.0,0007.22,0003.27,0002.61
2023-10-01 14:02:00,SystemResetWarning,0827.2,5.00,000.00,028.8,027.5,000.0,037.2,030.5,20.5,0000.0,0007.22,0003.28,0002.60
2023-10-01 14:03:00,SystemResetWarning,0827.1,5.01,000.00,028.8,027.4,000.0,037.2,030.5,20.4,0000.0,0007.09,0003.29,0002.61
2023-10-01 14:04:00,SystemResetWarning,0827.1,5.00,000.00,028.8,027.4,000.0,037.2,030.5,20.5,0000.0,0007.10,0003.27,0002.61
2023-10-01 14:05:00,SystemResetWarning,0827.2,5.00,000.00,028.8,027.4,000.0,037.2,030.5,20.6,0000.0,0007.18,0003.25,0002.61
2023-10-01 14:06:00,SystemResetWarning,0827.2,5.00,000.00,028.8,027.4,000.0,037.2,030.5,20.6,0000.0,0007.01,0003.27,0002.60
2023-10-01 14:07:00,SystemResetWarning,0827.1,5.00,000.00,028.8,027.4,000.0,037.2,030.5,20.8,0000.0,0007.46,0003.26,0002.61
2023-10-01 14:08:00,SystemResetWarning,0827.2,5.00,000.00,028.8,027.4,000.0,037.2,030.5,21.3,0000.0,0007.29,0003.26,0002.61
2023-10-01 14:09:00,SystemResetWarning,0827.2,5.00,000.00,028.8,027.4,000.0,037.2,030.5,21.6,0000.0,0007.34,0003.25,0002.61
2023-10-01 14:10:00,SystemResetWarning,0827.2,4.99,000.00,028.8,027.4,000.0,037.2,030.5,21.8,0000.0,0007.25,0003.27,0002.62
2023-10-01 14:11:00,SystemResetWarning,0827.2,4.99,000.00,028.8,027.4,000.0,037.2,030.5,21.9,0000.0,0007.29,0003.27,0002.62
2023-10-01 14:12:00,SystemResetWarning,0827.2,5.00,000.00,028.8,027.4,000.0,037.2,030.5,21.8,0000.0,0007.39,0003.28,0002.62
2023-10-01 14:13:00,SystemResetWarning,0827.2,5.00,000.00,028.8,027.4,000.0,037.3,030.5,21.9,0000.0,0007.48,0003.29,0002.64
2023-10-01 14:14:00,SystemResetWarning,0827.3,5.01,000.00,028.8,027.4,000.0,037.3,030.5,21.9,0000.0,0007.69,0003.30,0002.63
2023-10-01 14:15:00,SystemResetWarning,0827.3,5.00,000.00,028.9,027.4,000.0,037.3,030.5,21.9,0000.0,0007.94,0003.30,0002.63
2023-10-01 14:16:00,SystemResetWarning,0827.4,5.00,000.00,028.9,027.4,000.0,037.3,030.5,22.0,0000.0,0008.84,0003.33,0002.64
2023-10-01 14:17:00,SystemResetWarning,0827.4,5.00,000.00,028.9,027.5,000.0,037.3,030.6,22.0,0000.0,0008.88,0003.36,0002.64
2023-10-01 14:18:00,SystemResetWarning,0827.4,5.00,000.00,028.9,027.5,000.0,037.3,030.6,22.1,0000.0,0008.36,0003.42,0002.65
2023-10-01 14:19:00,SystemResetWarning,0827.3,5.00,000.00,028.9,027.5,000.0,037.3,030.6,22.3,0000.0,0008.31,0003.42,0002.64
2023-10-01 14:20:00,SystemResetWarning,0827.3,5.00,000.00,028.9,027.5,000.0,037.3,030.6,22.4,0000.0,0008.31,0003.42,0002.65
2023-10-01 14:21:00,SystemResetWarning,0827.4,5.00,000.00,028.9,027.5,000.0,037.3,030.6,22.3,0000.0,0008.52,0003.42,0002.64
2023-10-01 14:22:00,SystemResetWarning,0827.4,5.00,000.00,028.9,027.5,000.0,037.3,030.6,22.1,0000.0,0009.38,0003.43,0002.63
2023-10-01 14:23:00,SystemResetWarning,0827.4,5.01,000.00,028.9,027.5,000.0,037.3,030.6,22.0,0000.0,0010.83,0003.45,0002.64
2023-10-01 14:24:00,SystemResetWarning,0827.4,5.00,000.00,028.9,027.5,000.0,037.3,030.6,22.1,0000.0,0011.68,0003.50,0002.63
2023-10-01 14:25:00,SystemResetWarning,0827.4,4.99,000.00,028.9,027.4,000.0,037.3,030.6,21.8,0000.0,0011.46,0003.52,0002.62
2023-10-01 14:26:00,SystemResetWarning,0827.4,4.99,000.00,028.9,025.9,000.0,037.3,030.6,21.7,0000.0,0011.31,0003.53,0002.61
2023-10-01 14:27:00,SystemResetWarning,0827.4,5.01,000.00,028.9,025.1,000.0,037.3,030.4,21.9,0000.0,0010.57,0003.51,0002.61
2023-10-01 14:28:00,SystemResetWarning,0827.4,5.01,000.00,028.8,025.1,000.0,037.3,030.3,21.7,0000.0,0010.56,0003.51,0002.62
2023-10-01 14:29:00,SystemResetWarning,0827.4,5.00,000.00,028.7,025.4,000.0,037.3,030.2,21.8,0000.0,0010.51,0003.48,0002.63
2023-10-01 14:30:00,SystemResetWarning,0827.4,5.00,000.00,028.7,025.7,000.0,037.2,030.2,21.8,0000.0,0010.48,0003.47,0002.63
2023-10-01 14:31:00,SystemResetWarning,0827.4,5.00,000.00,028.6,026.0,000.0,037.2,030.2,21.8,0000.0,0011.00,0003.52,0002.65
2023-10-01 14:32:00,SystemResetWarning,0827.4,5.00,000.00,028.6,026.3,000.0,037.2,030.2,22.0,0000.0,0011.02,0003.58,0002.67
2023-10-01 14:33:00,SystemResetWarning,0827.4,5.00,000.00,028.6,026.5,000.0,037.2,030.2,22.1,0000.0,0010.59,0003.62,0002.69
2023-10-01 14:34:00,SystemResetWarning,0827.4,5.00,000.00,028.6,026.6,000.0,037.2,030.3,22.1,0000.0,0009.09,0003.62,0002.70
2023-10-01 14:35:00,SystemResetWarning,0827.3,4.99,000.00,028.6,026.8,000.0,037.2,030.3,22.1,0000.0,0008.17,0003.59,0002.72
2023-10-01 14:36:00,SystemResetWarning,0827.4,4.99,000.00,028.6,026.9,000.0,037.1,030.3,22.1,0000.0,0007.96,0003.57,0002.74
2023-10-01 14:37:00,SystemResetWarning,0827.3,5.00,000.00,028.6,027.0,000.0,037.1,030.3,22.4,0000.0,0008.30,0003.58,0002.76
2023-10-01 14:38:00,SystemResetWarning,0827.4,5.00,000.00,028.6,027.1,000.0,037.1,030.3,22.7,0000.0,0008.12,0003.57,0002.78
2023-10-01 14:39:00,SystemResetWarning,0827.4,5.00,000.00,028.7,027.1,000.0,037.1,030.4,23.3,0000.0,0007.97,0003.57,0002.77
2023-10-01 14:40:00,SystemResetWarning,0827.4,5.01,000.00,028.7,027.2,000.0,037.1,030.4,23.0,0000.0,0008.05,0003.57,0002.77
2023-10-01 14:41:00,SystemResetWarning,0827.4,5.01,000.00,028.7,027.2,000.0,037.1,030.4,23.1,0000.0,0008.37,0003.60,0002.78
2023-10-01 14:42:00,SystemResetWarning,0827.4,5.00,000.00,028.7,027.3,000.0,037.1,030.4,22.8,0000.0,0008.00,0003.59,0002.79
2023-10-01 14:43:00,SystemResetWarning,0827.4,5.00,000.00,028.7,027.3,000.0,037.1,030.4,23.1,0000.0,0007.78,0003.55,0002.80
2023-10-01 14:44:00,SystemResetWarning,0827.4,4.99,000.00,028.7,027.4,000.0,037.2,030.5,23.1,0000.0,0007.49,0003.50,0002.78
2023-10-01 14:45:00,SystemResetWarning,0827.4,4.99,000.00,028.7,027.4,000.0,037.2,030.5,23.4,0000.0,0007.34,0003.51,0002.78
2023-10-01 14:46:00,SystemResetWarning,0827.4,5.00,000.00,028.8,027.4,000.0,037.2,030.5,23.6,0000.0,0007.83,0003.55,0002.75
2023-10-01 14:47:00,SystemResetWarning,0827.4,5.01,000.00,028.8,027.4,000.0,037.2,030.5,23.7,0000.0,0008.51,0003.58,0002.74
2023-10-01 14:48:00,SystemResetWarning,0827.4,5.01,000.00,028.8,027.5,000.0,037.2,030.5,23.7,0000.0,0008.87,0003.59,0002.73
2023-10-01 14:49:00,SystemResetWarning,0827.4,5.00,000.00,028.8,027.5,000.0,037.2,030.5,23.5,0000.0,0008.68,0003.62,0002.71
2023-10-01 14:50:00,SystemResetWarning,0827.4,5.00,000.00,028.8,027.5,000.0,037.2,030.5,23.3,0000.0,0008.84,0003.66,0002.71
2023-10-01 14:51:00,SystemResetWarning,0827.4,4.99,000.00,028.8,027.5,000.0,037.2,030.6,23.1,0000.0,0008.89,0003.66,0002.70
2023-10-01 14:52:00,SystemResetWarning,0827.4,4.99,000.00,028.8,027.5,000.0,037.2,030.6,23.5,0000.0,0008.73,0003.66,0002.69
2023-10-01 14:53:00,SystemResetWarning,0827.4,5.00,000.00,028.9,027.6,000.0,037.2,030.6,23.4,0000.0,0008.74,0003.65,0002.66
2023-10-01 14:54:00,SystemResetWarning,0827.4,5.01,000.00,028.9,027.6,000.0,037.2,030.6,23.1,0000.0,0008.68,0003.61,0002.64
2023-10-01 14:55:00,SystemResetWarning,0827.4,5.01,000.00,028.9,027.6,000.0,037.2,030.6,23.0,0000.0,0008.89,0003.61,0002.62
2023-10-01 14:56:00,SystemResetWarning,0827.4,4.99,000.00,028.9,027.6,000.0,037.3,030.7,23.3,0000.0,0009.20,0003.58,0002.63
2023-10-01 14:57:00,SystemResetWarning,0827.5,4.99,000.00,028.9,027.4,000.0,037.3,030.7,22.9,0000.0,0008.69,0003.53,0002.64
2023-10-01 14:58:00,SystemResetWarning,0827.8,5.00,000.00,028.9,025.9,000.0,037.2,030.6,22.7,0000.0,0008.29,0003.50,0002.62
2023-10-01 14:59:00,SystemResetWarning,0827.8,5.01,000.00,028.8,024.4,000.0,037.2,030.3,22.9,0000.0,0008.28,0003.47,0002.61
